Time,TemperatureF,DewpointF,PressureIn,WindDirection,WindDirectionDegrees,WindSpeedMPH,WindSpeedGustMPH,Humidity,HourlyPrecipIn,Conditions,Clouds,dailyrainin,SolarRadiationWatts/m^2,SoftwareType,DateUTC
2013-02-22 00:02:00,21.3,13.1,30.13,NE,46,3.0,12.0,70,0.00,,---,0.00,0.00,VWS V14.00,2013-02-22 06:02:00,
2013-02-22 00:07:00,21.3,13.1,30.13,North,349,2.0,12.0,70,0.00,,---,0.00,0.00,VWS V14.00,2013-02-22 06:07:00,
2013-02-22 00:12:00,21.3,13.4,30.13,NE,55,4.0,12.0,71,0.00,,---,0.00,0.00,VWS V14.00,2013-02-22 06:12:00,
2013-02-22 00:17:00,21.2,13.3,30.12,North,355,3.0,13.0,71,0.00,,---,0.00,0.00,VWS V14.00,2013-02-22 06:17:00,
2013-02-22 00:22:00,21.2,13.6,30.11,North,5,7.0,13.0,72,0.00,,---,0.00,0.00,VWS V14.00,2013-02-22 06:22:00,
2013-02-22 00:27:00,21.3,13.7,30.11,NNE,26,0.0,13.0,72,0.00,,---,0.00,0.00,VWS V14.00,2013-02-22 06:27:00,
2013-02-22 00:32:00,21.3,13.7,30.11,North,355,5.0,13.0,72,0.00,,---,0.00,0.00,VWS V14.00,2013-02-22 06:32:00,
2013-02-22 00:37:00,21.3,14.0,30.11,NE,49,3.0,13.0,73,0.00,,---,0.00,0.00,VWS V14.00,2013-02-22 06:37:00,
2013-02-22 00:43:00,21.4,14.1,30.11,NNE,19,3.0,13.0,73,0.00,,---,0.00,0.00,VWS V14.00,2013-02-22 06:43:00,
2013-02-22 00:48:00,21.4,14.4,30.11,North,355,3.0,13.0,74,0.00,,---,0.00,0.00,VWS V14.00,2013-02-22 06:48:00,
2013-02-22 00:53:00,21.4,14.7,30.10,East,90,3.0,13.0,75,0.00,,---,0.00,0.00,VWS V14.00,2013-02-22 06:53:00,
2013-02-22 00:58:00,21.3,14.9,30.10,NE,42,2.0,2.0,76,0.00,,---,0.00,0.00,VWS V14.00,2013-02-22 06:58:00,
2013-02-22 01:03:00,21.2,16.0,30.10,ENE,62,6.0,10.0,80,0.00,,---,0.00,0.00,VWS V14.00,2013-02-22 07:03:00,
2013-02-22 01:08:00,20.8,16.5,30.10,NE,50,7.0,11.0,83,0.00,,---,0.00,0.00,VWS V14.00,2013-02-22 07:08:00,
2013-02-22 01:13:00,20.5,16.7,30.09,NE,53,3.0,11.0,85,0.00,,---,0.00,0.00,VWS V14.00,2013-02-22 07:13:00,
2013-02-22 01:18:00,20.3,16.8,30.09,NE,55,2.0,11.0,86,0.00,,---,0.00,0.00,VWS V14.00,2013-02-22 07:18:00,
2013-02-22 01:23:00,20.2,17.0,30.08,NNE,17,5.0,11.0,87,0.00,,---,0.00,0.00,VWS V14.00,2013-02-22 07:23:00,
2013-02-22 01:28:00,20.1,17.1,30.08,NNE,14,2.0,4.0,88,0.00,,---,0.00,0.00,VWS V14.00,2013-02-22 07:28:00,
2013-02-22 01:34:00,20.1,17.1,30.07,NE,34,3.0,7.0,88,0.00,,---,0.00,0.00,VWS V14.00,2013-02-22 07:34:00,
2013-02-22 01:39:00,20.0,17.3,30.07,North,5,2.0,7.0,89,0.00,,---,0.00,0.00,VWS V14.00,2013-02-22 07:39:00,
2013-02-22 01:44:00,20.0,17.3,30.07,NNW,348,1.0,9.0,89,0.00,,---,0.00,0.00,VWS V14.00,2013-02-22 07:44:00,
2013-02-22 01:49:00,20.0,17.3,30.07,NNW,332,2.0,11.0,89,0.00,,---,0.00,0.00,VWS V14.00,2013-02-22 07:49:00,
2013-02-22 01:54:00,20.0,17.5,30.07,North,9,3.0,11.0,90,0.00,,---,0.00,0.00,VWS V14.00,2013-02-22 07:54:00,
2013-02-22 01:59:00,20.0,17.5,30.06,North,5,1.0,4.0,90,0.00,,---,0.00,0.00,VWS V14.00,2013-02-22 07:59:00,
2013-02-22 02:04:00,19.9,17.5,30.06,NE,41,0.0,5.0,90,0.00,,---,0.00,0.00,VWS V14.00,2013-02-22 08:04:00,
2013-02-22 02:09:00,19.9,17.5,30.06,NNE,21,1.0,7.0,90,0.00,,---,0.00,0.00,VWS V14.00,2013-02-22 08:09:00,
2013-02-22 02:14:00,19.9,17.5,30.06,North,350,3.0,7.0,90,0.00,,---,0.00,0.00,VWS V14.00,2013-02-22 08:14:00,
2013-02-22 02:19:00,19.9,17.5,30.06,NNW,348,2.0,7.0,90,0.00,,---,0.00,0.00,VWS V14.00,2013-02-22 08:19:00,
2013-02-22 02:25:00,19.9,17.5,30.06,NNE,17,4.0,7.0,90,0.00,,---,0.00,0.00,VWS V14.00,2013-02-22 08:25:00,
2013-02-22 02:30:00,19.9,17.5,30.06,NNE,17,2.0,7.0,90,0.00,,---,0.00,0.00,VWS V14.00,2013-02-22 08:30:00,
2013-02-22 02:35:00,19.9,17.5,30.05,North,10,3.0,9.0,90,0.00,,---,0.00,0.00,VWS V14.00,2013-02-22 08:35:00,
2013-02-22 02:40:00,19.9,17.5,30.04,North,351,1.0,9.0,90,0.00,,---,0.00,0.00,VWS V14.00,2013-02-22 08:40:00,
2013-02-22 02:45:00,19.9,17.5,30.04,NNE,33,3.0,9.0,90,0.00,,---,0.00,0.00,VWS V14.00,2013-02-22 08:45:00,
2013-02-22 02:50:00,19.7,17.2,30.04,North,350,3.0,9.0,90,0.00,,---,0.00,0.00,VWS V14.00,2013-02-22 08:50:00,
2013-02-22 02:55:00,19.7,17.2,30.04,NNW,345,4.0,9.0,90,0.00,,---,0.00,0.00,VWS V14.00,2013-02-22 08:55:00,
2013-02-22 03:00:00,19.6,17.1,30.05,NNE,24,4.0,8.0,90,0.00,,---,0.00,0.00,VWS V14.00,2013-02-22 09:00:00,
2013-02-22 03:05:00,19.4,17.0,30.05,NNE,22,3.0,11.0,90,0.00,,---,0.00,0.00,VWS V14.00,2013-02-22 09:05:00,
2013-02-22 03:10:00,19.3,16.9,30.05,NNE,15,5.0,11.0,90,0.00,,---,0.00,0.00,VWS V14.00,2013-02-22 09:10:00,
2013-02-22 03:15:00,19.2,16.8,30.05,North,351,5.0,11.0,90,0.00,,---,0.00,0.00,VWS V14.00,2013-02-22 09:15:00,
2013-02-22 03:20:00,19.1,16.7,30.05,NNE,30,1.0,11.0,90,0.00,,---,0.00,0.00,VWS V14.00,2013-02-22 09:20:00,
2013-02-22 03:26:00,19.1,16.7,30.04,North,360,2.0,11.0,90,0.00,,---,0.00,0.00,VWS V14.00,2013-02-22 09:26:00,
2013-02-22 03:31:00,19.0,16.6,30.04,NNW,341,1.0,5.0,90,0.00,,---,0.00,0.00,VWS V14.00,2013-02-22 09:31:00,
2013-02-22 03:36:00,19.0,16.6,30.03,North,9,4.0,6.0,90,0.00,,---,0.00,0.00,VWS V14.00,2013-02-22 09:36:00,
2013-02-22 03:41:00,19.0,16.6,30.03,NNW,329,2.0,6.0,90,0.00,,---,0.00,0.00,VWS V14.00,2013-02-22 09:41:00,
2013-02-22 03:46:00,19.0,16.6,30.02,NNE,13,3.0,6.0,90,0.00,,---,0.00,0.00,VWS V14.00,2013-02-22 09:46:00,
2013-02-22 03:51:00,19.0,16.8,30.02,North,360,3.0,10.0,91,0.00,,---,0.00,0.00,VWS V14.00,2013-02-22 09:51:00,
2013-02-22 03:56:00,19.0,16.8,30.02,North,9,1.0,10.0,91,0.00,,---,0.00,0.00,VWS V14.00,2013-02-22 09:56:00,
2013-02-22 04:01:00,19.0,16.8,30.02,NNW,347,2.0,6.0,91,0.00,,---,0.00,0.00,VWS V14.00,2013-02-22 10:01:00,
2013-02-22 04:06:00,19.1,16.9,30.01,North,360,10.0,10.0,91,0.00,,---,0.00,0.00,VWS V14.00,2013-02-22 10:06:00,
2013-02-22 04:11:00,19.1,16.9,30.01,NNW,331,4.0,13.0,91,0.00,,---,0.00,0.00,VWS V14.00,2013-02-22 10:11:00,
2013-02-22 04:16:00,19.2,17.0,30.01,NNE,15,5.0,13.0,91,0.00,,---,0.00,0.00,VWS V14.00,2013-02-22 10:16:00,
2013-02-22 04:21:00,19.3,17.1,30.01,NNE,15,1.0,13.0,91,0.00,,---,0.00,0.00,VWS V14.00,2013-02-22 10:21:00,
2013-02-22 04:26:00,19.4,17.2,30.01,North,360,3.0,13.0,91,0.00,,---,0.00,0.00,VWS V14.00,2013-02-22 10:26:00,
2013-02-22 04:31:00,19.4,17.2,30.01,NNE,25,2.0,10.0,91,0.00,,---,0.00,0.00,VWS V14.00,2013-02-22 10:31:00,
2013-02-22 04:36:00,19.5,17.3,30.01,NNW,338,7.0,10.0,91,0.00,,---,0.00,0.00,VWS V14.00,2013-02-22 10:36:00,
2013-02-22 04:41:00,19.5,17.3,30.01,North,350,2.0,10.0,91,0.00,,---,0.00,0.00,VWS V14.00,2013-02-22 10:41:00,
2013-02-22 04:46:00,19.6,17.4,30.00,North,5,3.0,10.0,91,0.00,,---,0.00,0.00,VWS V14.00,2013-02-22 10:46:00,
2013-02-22 04:51:00,19.7,17.5,30.00,North,360,5.0,10.0,91,0.00,,---,0.00,0.00,VWS V14.00,2013-02-22 10:51:00,
2013-02-22 04:57:00,19.7,17.5,30.01,North,5,3.0,10.0,91,0.00,,---,0.00,0.00,VWS V14.00,2013-02-22 10:57:00,
2013-02-22 05:02:00,19.7,17.5,30.00,North,5,5.0,6.0,91,0.00,,---,0.00,0.00,VWS V14.00,2013-02-22 11:02:00,
2013-02-22 05:07:00,19.7,17.5,30.00,North,360,4.0,7.0,91,0.00,,---,0.00,0.00,VWS V14.00,2013-02-22 11:07:00,
2013-02-22 05:12:00,19.7,17.5,30.00,North,355,4.0,7.0,91,0.00,,---,0.00,0.00,VWS V14.00,2013-02-22 11:12:00,
2013-02-22 05:17:00,19.7,17.5,30.00,NNW,338,4.0,7.0,91,0.00,,---,0.00,0.00,VWS V14.00,2013-02-22 11:17:00,
2013-02-22 05:22:00,19.7,17.5,30.00,North,5,4.0,9.0,91,0.00,,---,0.00,0.00,VWS V14.00,2013-02-22 11:22:00,
2013-02-22 05:27:00,19.7,17.5,30.00,NNW,339,2.0,10.0,91,0.00,,---,0.00,0.00,VWS V14.00,2013-02-22 11:27:00,
2013-02-22 05:32:00,19.7,17.5,30.00,North,355,6.0,7.0,91,0.00,,---,0.00,0.00,VWS V14.00,2013-02-22 11:32:00,
2013-02-22 05:37:00,19.7,17.5,29.99,NNE,16,4.0,8.0,91,0.00,,---,0.00,0.00,VWS V14.00,2013-02-22 11:37:00,
2013-02-22 05:42:00,19.7,17.5,29.99,North,5,3.0,8.0,91,0.00,,---,0.00,0.00,VWS V14.00,2013-02-22 11:42:00,
2013-02-22 05:47:00,19.7,17.5,29.99,NNE,17,4.0,10.0,91,0.00,,---,0.00,0.00,VWS V14.00,2013-02-22 11:47:00,
2013-02-22 05:52:00,19.7,17.5,29.99,North,9,6.0,12.0,91,0.00,,---,0.00,0.00,VWS V14.00,2013-02-22 11:52:00,
2013-02-22 05:57:00,19.7,17.2,29.99,North,349,5.0,12.0,90,0.00,,---,0.00,0.00,VWS V14.00,2013-02-22 11:57:00,
2013-02-22 06:02:00,19.7,17.2,29.98,North,360,3.0,8.0,90,0.00,,---,0.00,0.00,VWS V14.00,2013-02-22 12:02:00,
2013-02-22 06:07:00,19.7,17.2,29.99,NNE,19,1.0,8.0,90,0.00,,---,0.00,0.00,VWS V14.00,2013-02-22 12:07:00,
2013-02-22 06:13:00,19.7,17.2,29.99,North,355,7.0,8.0,90,0.00,,---,0.00,0.00,VWS V14.00,2013-02-22 12:13:00,
2013-02-22 06:18:00,19.7,17.2,29.99,NNE,14,5.0,9.0,90,0.00,,---,0.00,0.00,VWS V14.00,2013-02-22 12:18:00,
2013-02-22 06:23:00,19.7,17.2,29.99,North,9,9.0,9.0,90,0.00,,---,0.00,0.00,VWS V14.00,2013-02-22 12:23:00,
2013-02-22 06:28:00,19.7,17.2,29.98,North,360,3.0,5.0,90,0.00,,---,0.00,0.00,VWS V14.00,2013-02-22 12:28:00,
2013-02-22 06:33:00,19.7,17.2,29.98,North,5,3.0,9.0,90,0.00,,---,0.00,0.00,VWS V14.00,2013-02-22 12:33:00,
2013-02-22 06:38:00,19.7,17.2,29.99,NNE,19,3.0,9.0,90,0.00,,---,0.00,0.00,VWS V14.00,2013-02-22 12:38:00,
2013-02-22 06:43:00,19.7,17.2,29.98,NNE,13,3.0,9.0,90,0.00,,---,0.00,0.00,VWS V14.00,2013-02-22 12:43:00,
2013-02-22 06:48:00,19.7,17.2,29.98,North,350,2.0,9.0,90,0.00,,---,0.00,0.00,VWS V14.00,2013-02-22 12:48:00,
2013-02-22 06:53:00,19.7,17.2,29.98,NNW,336,4.0,9.0,90,0.00,,---,0.00,0.00,VWS V14.00,2013-02-22 12:53:00,
2013-02-22 06:58:00,19.7,17.2,29.98,NNW,332,2.0,3.0,90,0.00,,---,0.00,0.00,VWS V14.00,2013-02-22 12:58:00,
2013-02-22 07:03:00,19.7,17.2,29.98,North,360,4.0,7.0,90,0.00,,---,0.00,0.00,VWS V14.00,2013-02-22 13:03:00,
2013-02-22 07:08:00,19.7,17.2,29.98,NNE,19,3.0,11.0,90,0.00,,---,0.00,0.00,VWS V14.00,2013-02-22 13:08:00,
2013-02-22 07:13:00,19.7,17.2,29.98,NNE,15,2.0,11.0,90,0.00,,---,0.00,0.00,VWS V14.00,2013-02-22 13:13:00,
2013-02-22 07:18:00,19.7,17.5,29.98,NNW,331,2.0,11.0,91,0.00,,---,0.00,5.00,VWS V14.00,2013-02-22 13:18:00,
2013-02-22 07:24:00,19.7,17.5,29.98,North,5,5.0,11.0,91,0.00,,---,0.00,5.00,VWS V14.00,2013-02-22 13:24:00,
2013-02-22 07:29:00,19.7,17.5,29.97,North,360,5.0,9.0,91,0.00,,---,0.00,7.00,VWS V14.00,2013-02-22 13:29:00,
2013-02-22 07:34:00,19.7,17.5,29.97,NW,313,4.0,10.0,91,0.00,,---,0.00,9.00,VWS V14.00,2013-02-22 13:34:00,
2013-02-22 07:39:00,19.7,17.5,29.97,NNE,15,3.0,10.0,91,0.00,,---,0.00,11.00,VWS V14.00,2013-02-22 13:39:00,
2013-02-22 07:44:00,19.7,17.5,29.97,North,360,3.0,10.0,91,0.00,,---,0.00,14.00,VWS V14.00,2013-02-22 13:44:00,
2013-02-22 07:49:00,19.7,17.5,29.97,North,355,10.0,11.0,91,0.00,,---,0.00,19.00,VWS V14.00,2013-02-22 13:49:00,
2013-02-22 07:54:00,19.7,17.5,29.97,North,5,4.0,11.0,91,0.00,,---,0.00,25.00,VWS V14.00,2013-02-22 13:54:00,
2013-02-22 07:59:00,19.7,17.5,29.97,NNW,342,3.0,11.0,91,0.00,,---,0.00,30.00,VWS V14.00,2013-02-22 13:59:00,
2013-02-22 08:04:00,19.7,17.5,29.97,North,360,6.0,11.0,91,0.00,,---,0.00,35.00,VWS V14.00,2013-02-22 14:04:00,
2013-02-22 08:09:00,19.7,17.5,29.96,North,9,7.0,11.0,91,0.00,,---,0.00,39.00,VWS V14.00,2013-02-22 14:09:00,
2013-02-22 08:14:00,19.7,17.5,29.96,NNW,348,3.0,11.0,91,0.00,,---,0.00,47.00,VWS V14.00,2013-02-22 14:14:00,
2013-02-22 08:19:00,19.8,17.6,29.96,North,5,5.0,12.0,91,0.00,,---,0.00,60.00,VWS V14.00,2013-02-22 14:19:00,
2013-02-22 08:24:00,19.9,17.7,29.96,North,355,4.0,12.0,91,0.00,,---,0.00,56.00,VWS V14.00,2013-02-22 14:24:00,
2013-02-22 08:29:00,19.9,17.7,29.96,NNW,348,3.0,4.0,91,0.00,,---,0.00,65.00,VWS V14.00,2013-02-22 14:29:00,
2013-02-22 08:35:00,20.0,17.8,29.96,North,9,3.0,7.0,91,0.00,,---,0.00,74.00,VWS V14.00,2013-02-22 14:35:00,
2013-02-22 08:40:00,20.1,17.9,29.96,North,5,5.0,10.0,91,0.00,,---,0.00,70.00,VWS V14.00,2013-02-22 14:40:00,
2013-02-22 08:45:00,20.1,17.9,29.96,North,360,6.0,11.0,91,0.00,,---,0.00,67.00,VWS V14.00,2013-02-22 14:45:00,
2013-02-22 08:50:00,20.2,18.0,29.96,NNE,30,6.0,11.0,91,0.00,,---,0.00,74.00,VWS V14.00,2013-02-22 14:50:00,
2013-02-22 08:55:00,20.2,18.0,29.96,North,10,4.0,11.0,91,0.00,,---,0.00,81.00,VWS V14.00,2013-02-22 14:55:00,
2013-02-22 09:00:00,20.3,18.1,29.96,NNE,20,3.0,7.0,91,0.00,,---,0.00,97.00,VWS V14.00,2013-02-22 15:00:00,
2013-02-22 09:05:00,20.4,18.2,29.96,North,355,2.0,7.0,91,0.00,,---,0.00,107.00,VWS V14.00,2013-02-22 15:05:00,
2013-02-22 09:10:00,20.6,18.4,29.95,North,5,3.0,9.0,91,0.00,,---,0.00,116.00,VWS V14.00,2013-02-22 15:10:00,
2013-02-22 09:15:00,20.7,18.2,29.96,NNE,14,9.0,10.0,90,0.00,,---,0.00,100.00,VWS V14.00,2013-02-22 15:15:00,
2013-02-22 09:20:00,20.7,18.2,29.96,NNW,340,5.0,11.0,90,0.00,,---,0.00,116.00,VWS V14.00,2013-02-22 15:20:00,
2013-02-22 09:26:00,20.8,18.3,29.96,NNE,22,3.0,11.0,90,0.00,,---,0.00,114.00,VWS V14.00,2013-02-22 15:26:00,
2013-02-22 09:31:00,20.9,18.4,29.96,North,349,3.0,5.0,90,0.00,,---,0.00,114.00,VWS V14.00,2013-02-22 15:31:00,
2013-02-22 09:36:00,20.9,18.4,29.96,NW,323,2.0,8.0,90,0.00,,---,0.00,127.00,VWS V14.00,2013-02-22 15:36:00,
2013-02-22 09:41:00,21.1,18.6,29.96,North,355,5.0,8.0,90,0.00,,---,0.00,162.00,VWS V14.00,2013-02-22 15:41:00,
2013-02-22 09:46:00,21.3,18.8,29.96,NNW,340,1.0,9.0,90,0.00,,---,0.00,204.00,VWS V14.00,2013-02-22 15:46:00,
2013-02-22 09:51:00,21.5,19.0,29.95,NNW,344,2.0,9.0,90,0.00,,---,0.00,197.00,VWS V14.00,2013-02-22 15:51:00,
2013-02-22 09:56:00,21.6,19.1,29.95,NNE,17,5.0,9.0,90,0.00,,---,0.00,223.00,VWS V14.00,2013-02-22 15:56:00,
2013-02-22 10:01:00,21.7,19.0,29.95,North,355,3.0,8.0,89,0.00,,---,0.00,207.00,VWS V14.00,2013-02-22 16:01:00,
2013-02-22 10:06:00,21.9,19.4,29.95,NNE,15,2.0,8.0,90,0.00,,---,0.00,206.00,VWS V14.00,2013-02-22 16:06:00,
2013-02-22 10:11:00,22.0,19.3,29.95,North,10,6.0,9.0,89,0.00,,---,0.00,186.00,VWS V14.00,2013-02-22 16:11:00,
2013-02-22 10:16:00,22.0,19.3,29.95,North,350,2.0,9.0,89,0.00,,---,0.00,162.00,VWS V14.00,2013-02-22 16:16:00,
2013-02-22 10:21:00,22.1,19.4,29.95,NNW,342,5.0,9.0,89,0.00,,---,0.00,193.00,VWS V14.00,2013-02-22 16:21:00,
2013-02-22 10:26:00,22.2,19.5,29.95,NNE,12,4.0,9.0,89,0.00,,---,0.00,220.00,VWS V14.00,2013-02-22 16:26:00,
2013-02-22 10:32:00,22.4,19.7,29.95,North,355,2.0,8.0,89,0.00,,---,0.00,248.00,VWS V14.00,2013-02-22 16:32:00,
2013-02-22 10:37:00,22.6,19.9,29.94,North,351,3.0,8.0,89,0.00,,---,0.00,262.00,VWS V14.00,2013-02-22 16:37:00,
2013-02-22 10:42:00,22.8,19.8,29.94,North,11,2.0,8.0,88,0.00,,---,0.00,271.00,VWS V14.00,2013-02-22 16:42:00,
2013-02-22 10:47:00,23.0,20.0,29.94,NNE,12,5.0,10.0,88,0.00,,---,0.00,278.00,VWS V14.00,2013-02-22 16:47:00,
2013-02-22 10:52:00,23.1,20.1,29.94,North,5,5.0,10.0,88,0.00,,---,0.00,281.00,VWS V14.00,2013-02-22 16:52:00,
2013-02-22 10:57:00,23.2,19.9,29.94,NNE,23,4.0,10.0,87,0.00,,---,0.00,302.00,VWS V14.00,2013-02-22 16:57:00,
2013-02-22 11:02:00,23.3,20.0,29.94,NNE,14,2.0,7.0,87,0.00,,---,0.00,318.00,VWS V14.00,2013-02-22 17:02:00,
2013-02-22 11:07:00,23.5,19.9,29.94,North,5,3.0,10.0,86,0.00,,---,0.00,360.00,VWS V14.00,2013-02-22 17:07:00,
2013-02-22 11:12:00,23.8,20.2,29.94,North,5,6.0,10.0,86,0.00,,---,0.00,383.00,VWS V14.00,2013-02-22 17:12:00,
2013-02-22 11:17:00,23.9,20.3,29.94,NNE,13,3.0,10.0,86,0.00,,---,0.00,364.00,VWS V14.00,2013-02-22 17:17:00,
2013-02-22 11:23:00,24.0,20.1,29.94,North,9,4.0,10.0,85,0.00,,---,0.00,320.00,VWS V14.00,2013-02-22 17:23:00,
2013-02-22 11:28:00,24.0,20.1,29.94,NNE,31,4.0,6.0,85,0.00,,---,0.00,348.00,VWS V14.00,2013-02-22 17:28:00,
2013-02-22 11:33:00,24.2,20.4,29.94,NNE,32,7.0,7.0,85,0.00,,---,0.00,339.00,VWS V14.00,2013-02-22 17:33:00,
2013-02-22 11:38:00,24.3,20.2,29.94,North,351,4.0,7.0,84,0.00,,---,0.00,246.00,VWS V14.00,2013-02-22 17:38:00,
2013-02-22 11:43:00,24.2,20.1,29.94,North,355,3.0,11.0,84,0.00,,---,0.00,288.00,VWS V14.00,2013-02-22 17:43:00,
2013-02-22 11:48:00,24.3,20.2,29.94,North,350,3.0,11.0,84,0.00,,---,0.00,330.00,VWS V14.00,2013-02-22 17:48:00,
2013-02-22 11:53:00,24.4,20.3,29.94,NE,41,0.0,11.0,84,0.00,,---,0.00,309.00,VWS V14.00,2013-02-22 17:53:00,
2013-02-22 11:58:00,24.8,20.4,29.93,NNE,18,5.0,7.0,83,0.00,,---,0.00,392.00,VWS V14.00,2013-02-22 17:58:00,
2013-02-22 12:03:00,25.0,20.3,29.93,North,349,4.0,7.0,82,0.00,,---,0.00,506.00,VWS V14.00,2013-02-22 18:03:00,
2013-02-22 12:09:00,25.0,20.3,29.93,NNE,15,3.0,8.0,82,0.00,,---,0.00,320.00,VWS V14.00,2013-02-22 18:09:00,
2013-02-22 12:14:00,25.0,20.3,29.93,WNW,301,1.0,8.0,82,0.00,,---,0.00,323.00,VWS V14.00,2013-02-22 18:14:00,
2013-02-22 12:19:00,25.3,20.6,29.93,NNE,27,4.0,8.0,82,0.00,,---,0.00,364.00,VWS V14.00,2013-02-22 18:19:00,
2013-02-22 12:24:00,25.5,20.8,29.93,NNE,17,2.0,8.0,82,0.00,,---,0.00,362.00,VWS V14.00,2013-02-22 18:24:00,
2013-02-22 12:29:00,25.6,20.6,29.93,North,5,1.0,3.0,81,0.00,,---,0.00,450.00,VWS V14.00,2013-02-22 18:29:00,
2013-02-22 12:34:00,25.7,20.7,29.93,NNE,28,1.0,5.0,81,0.00,,---,0.00,343.00,VWS V14.00,2013-02-22 18:34:00,
2013-02-22 12:39:00,25.6,20.6,29.92,North,350,2.0,5.0,81,0.00,,---,0.00,302.00,VWS V14.00,2013-02-22 18:39:00,
2013-02-22 12:44:00,25.5,20.2,29.92,NNE,21,0.0,5.0,80,0.00,,---,0.00,281.00,VWS V14.00,2013-02-22 18:44:00,
2013-02-22 12:49:00,25.6,20.6,29.92,NE,46,0.0,5.0,81,0.00,,---,0.00,302.00,VWS V14.00,2013-02-22 18:49:00,
2013-02-22 12:54:00,25.9,20.9,29.92,NNE,13,2.0,5.0,81,0.00,,---,0.00,257.00,VWS V14.00,2013-02-22 18:54:00,
2013-02-22 13:00:00,25.8,20.2,29.92,NE,37,0.0,5.0,79,0.00,,---,0.01,281.00,VWS V14.00,2013-02-22 19:00:00,
2013-02-22 13:05:00,25.8,20.2,29.92,North,5,2.0,5.0,79,0.00,,---,0.01,234.00,VWS V14.00,2013-02-22 19:05:00,
2013-02-22 13:10:00,25.7,20.1,29.92,North,355,1.0,5.0,79,0.00,,---,0.01,241.00,VWS V14.00,2013-02-22 19:10:00,
2013-02-22 13:15:00,25.7,20.1,29.92,NNE,13,0.0,5.0,79,0.00,,---,0.01,250.00,VWS V14.00,2013-02-22 19:15:00,
2013-02-22 13:20:00,25.7,19.8,29.91,NNE,13,0.0,5.0,78,0.00,,---,0.01,267.00,VWS V14.00,2013-02-22 19:20:00,
2013-02-22 13:25:00,25.8,20.2,29.91,NNE,13,0.0,5.0,79,0.00,,---,0.02,246.00,VWS V14.00,2013-02-22 19:25:00,
2013-02-22 13:30:00,25.9,20.3,29.91,North,9,1.0,3.0,79,0.00,,---,0.02,225.00,VWS V14.00,2013-02-22 19:30:00,
2013-02-22 13:35:00,26.0,20.4,29.91,North,9,2.0,3.0,79,0.00,,---,0.02,202.00,VWS V14.00,2013-02-22 19:35:00,
2013-02-22 13:40:00,26.0,20.1,29.91,NE,34,0.0,3.0,78,0.00,,---,0.02,192.00,VWS V14.00,2013-02-22 19:40:00,
2013-02-22 13:45:00,26.0,20.4,29.91,NNE,32,2.0,3.0,79,0.00,,---,0.03,199.00,VWS V14.00,2013-02-22 19:45:00,
2013-02-22 13:51:00,25.9,20.0,29.91,NNE,17,2.0,4.0,78,0.00,,---,0.03,197.00,VWS V14.00,2013-02-22 19:51:00,
2013-02-22 13:56:00,25.8,19.9,29.91,North,5,1.0,4.0,78,0.00,,---,0.03,190.00,VWS V14.00,2013-02-22 19:56:00,
2013-02-22 14:01:00,25.7,19.8,29.91,North,5,1.0,4.0,78,0.00,,---,0.03,206.00,VWS V14.00,2013-02-22 20:01:00,
2013-02-22 14:06:00,25.8,19.9,29.91,NE,38,1.0,4.0,78,0.00,,---,0.03,214.00,VWS V14.00,2013-02-22 20:06:00,
2013-02-22 14:11:00,26.0,20.1,29.91,NE,36,2.0,4.0,78,0.00,,---,0.03,221.00,VWS V14.00,2013-02-22 20:11:00,
2013-02-22 14:16:00,26.2,20.3,29.91,North,351,0.0,4.0,78,0.00,,---,0.03,221.00,VWS V14.00,2013-02-22 20:16:00,
2013-02-22 14:21:00,26.2,19.7,29.91,North,355,2.0,4.0,76,0.00,,---,0.03,206.00,VWS V14.00,2013-02-22 20:21:00,
2013-02-22 14:26:00,26.2,19.4,29.91,NW,317,2.0,6.0,75,0.00,,---,0.03,206.00,VWS V14.00,2013-02-22 20:26:00,
2013-02-22 14:31:00,26.2,19.1,29.91,North,5,2.0,4.0,74,0.00,,---,0.03,221.00,VWS V14.00,2013-02-22 20:31:00,
2013-02-22 14:36:00,26.2,19.1,29.91,North,355,2.0,4.0,74,0.00,,---,0.03,220.00,VWS V14.00,2013-02-22 20:36:00,
2013-02-22 14:42:00,26.3,19.1,29.90,NW,325,1.0,4.0,74,0.00,,---,0.03,185.00,VWS V14.00,2013-02-22 20:42:00,
2013-02-22 14:47:00,26.3,19.1,29.91,NW,306,3.0,5.0,74,0.00,,---,0.04,165.00,VWS V14.00,2013-02-22 20:47:00,
2013-02-22 14:52:00,26.1,19.0,29.91,NW,313,0.0,5.0,74,0.00,,---,0.04,156.00,VWS V14.00,2013-02-22 20:52:00,
2013-02-22 14:57:00,26.1,19.0,29.91,NW,313,1.0,5.0,74,0.00,,---,0.04,169.00,VWS V14.00,2013-02-22 20:57:00,
2013-02-22 15:02:00,26.2,19.4,29.91,NW,313,0.0,3.0,75,0.00,,---,0.04,167.00,VWS V14.00,2013-02-22 21:02:00,
2013-02-22 15:07:00,26.2,19.1,29.91,NW,317,1.0,4.0,74,0.00,,---,0.04,165.00,VWS V14.00,2013-02-22 21:07:00,
2013-02-22 15:12:00,26.2,19.1,29.91,NW,313,1.0,4.0,74,0.00,,---,0.04,155.00,VWS V14.00,2013-02-22 21:12:00,
2013-02-22 15:17:00,26.2,18.7,29.91,NW,313,0.0,4.0,73,0.00,,---,0.04,139.00,VWS V14.00,2013-02-22 21:17:00,
2013-02-22 15:22:00,26.2,18.7,29.91,WNW,298,1.0,5.0,73,0.00,,---,0.04,134.00,VWS V14.00,2013-02-22 21:22:00,
2013-02-22 15:27:00,26.1,19.0,29.91,NW,325,1.0,5.0,74,0.00,,---,0.04,134.00,VWS V14.00,2013-02-22 21:27:00,
2013-02-22 15:32:00,26.2,19.1,29.91,NW,320,3.0,4.0,74,0.00,,---,0.04,123.00,VWS V14.00,2013-02-22 21:32:00,
2013-02-22 15:37:00,26.2,19.1,29.91,NW,315,1.0,4.0,74,0.00,,---,0.04,111.00,VWS V14.00,2013-02-22 21:37:00,
2013-02-22 15:43:00,26.0,18.9,29.91,North,349,0.0,4.0,74,0.00,,---,0.04,97.00,VWS V14.00,2013-02-22 21:43:00,
2013-02-22 15:48:00,26.0,19.2,29.91,NNW,348,0.0,4.0,75,0.00,,---,0.04,90.00,VWS V14.00,2013-02-22 21:48:00,
2013-02-22 15:53:00,26.0,19.2,29.91,NW,321,2.0,4.0,75,0.00,,---,0.04,90.00,VWS V14.00,2013-02-22 21:53:00,
2013-02-22 15:58:00,26.0,19.5,29.91,WNW,303,4.0,5.0,76,0.00,,---,0.04,88.00,VWS V14.00,2013-02-22 21:58:00,
2013-02-22 16:03:00,25.9,20.0,29.91,NW,318,2.0,5.0,78,0.00,,---,0.04,84.00,VWS V14.00,2013-02-22 22:03:00,
2013-02-22 16:08:00,25.9,20.0,29.92,NW,309,2.0,6.0,78,0.00,,---,0.04,83.00,VWS V14.00,2013-02-22 22:08:00,
2013-02-22 16:13:00,25.7,19.8,29.92,NW,319,0.0,6.0,78,0.00,,---,0.04,76.00,VWS V14.00,2013-02-22 22:13:00,
2013-02-22 16:18:00,25.7,20.1,29.92,WSW,250,0.0,6.0,79,0.00,,---,0.04,69.00,VWS V14.00,2013-02-22 22:18:00,
2013-02-22 16:23:00,25.6,20.0,29.92,NW,316,2.0,6.0,79,0.00,,---,0.04,69.00,VWS V14.00,2013-02-22 22:23:00,
2013-02-22 16:28:00,25.5,20.2,29.92,NW,306,4.0,5.0,80,0.00,,---,0.04,63.00,VWS V14.00,2013-02-22 22:28:00,
2013-02-22 16:33:00,25.4,20.1,29.92,NNW,331,3.0,5.0,80,0.00,,---,0.04,62.00,VWS V14.00,2013-02-22 22:33:00,
2013-02-22 16:38:00,25.3,20.3,29.92,NW,325,1.0,6.0,81,0.00,,---,0.04,54.00,VWS V14.00,2013-02-22 22:38:00,
2013-02-22 16:44:00,25.2,20.2,29.92,NW,324,0.0,6.0,81,0.00,,---,0.04,53.00,VWS V14.00,2013-02-22 22:44:00,
2013-02-22 16:49:00,25.2,20.5,29.92,NW,324,1.0,6.0,82,0.00,,---,0.04,46.00,VWS V14.00,2013-02-22 22:49:00,
2013-02-22 16:54:00,25.1,20.4,29.92,NW,324,1.0,6.0,82,0.00,,---,0.04,42.00,VWS V14.00,2013-02-22 22:54:00,
2013-02-22 16:59:00,25.0,20.3,29.92,NW,309,1.0,2.0,82,0.00,,---,0.04,39.00,VWS V14.00,2013-02-22 22:59:00,
2013-02-22 17:04:00,24.9,20.5,29.93,NW,309,1.0,2.0,83,0.00,,---,0.04,33.00,VWS V14.00,2013-02-22 23:04:00,
2013-02-22 17:09:00,24.8,20.4,29.93,NW,319,1.0,4.0,83,0.00,,---,0.04,28.00,VWS V14.00,2013-02-22 23:09:00,
2013-02-22 17:14:00,24.7,20.3,29.93,NW,306,3.0,7.0,83,0.00,,---,0.04,23.00,VWS V14.00,2013-02-22 23:14:00,
2013-02-22 17:19:00,24.5,20.1,29.93,NW,323,3.0,7.0,83,0.00,,---,0.04,19.00,VWS V14.00,2013-02-22 23:19:00,
2013-02-22 17:24:00,24.4,20.3,29.93,NW,321,2.0,7.0,84,0.00,,---,0.04,14.00,VWS V14.00,2013-02-22 23:24:00,
2013-02-22 17:29:00,24.2,20.4,29.93,NNW,331,2.0,4.0,85,0.00,,---,0.04,9.00,VWS V14.00,2013-02-22 23:29:00,
2013-02-22 17:34:00,24.1,20.2,29.93,NNW,335,2.0,5.0,85,0.00,,---,0.04,7.00,VWS V14.00,2013-02-22 23:34:00,
2013-02-22 17:39:00,24.1,20.5,29.93,NW,311,1.0,5.0,86,0.00,,---,0.04,5.00,VWS V14.00,2013-02-22 23:39:00,
2013-02-22 17:44:00,24.0,20.4,29.93,NW,312,3.0,5.0,86,0.00,,---,0.04,5.00,VWS V14.00,2013-02-22 23:44:00,
2013-02-22 17:49:00,23.9,20.6,29.93,WNW,284,2.0,5.0,87,0.00,,---,0.04,0.00,VWS V14.00,2013-02-22 23:49:00,
2013-02-22 17:54:00,23.9,20.6,29.94,NW,304,1.0,5.0,87,0.00,,---,0.04,0.00,VWS V14.00,2013-02-22 23:54:00,
2013-02-22 17:59:00,23.8,20.5,29.94,NNW,327,1.0,3.0,87,0.00,,---,0.04,0.00,VWS V14.00,2013-02-22 23:59:00,
2013-02-22 18:05:00,23.7,20.4,29.94,NW,318,0.0,5.0,87,0.00,,---,0.04,0.00,VWS V14.00,2013-02-23 00:05:00,
2013-02-22 18:10:00,23.6,20.3,29.94,NW,317,0.0,5.0,87,0.00,,---,0.04,0.00,VWS V14.00,2013-02-23 00:10:00,
2013-02-22 18:15:00,23.5,20.2,29.94,NW,317,0.0,5.0,87,0.00,,---,0.04,0.00,VWS V14.00,2013-02-23 00:15:00,
2013-02-22 18:20:00,23.4,20.4,29.93,NW,318,0.0,5.0,88,0.00,,---,0.04,0.00,VWS V14.00,2013-02-23 00:20:00,
2013-02-22 18:25:00,23.3,20.3,29.94,NW,318,0.0,5.0,88,0.00,,---,0.04,0.00,VWS V14.00,2013-02-23 00:25:00,
2013-02-22 18:30:00,23.2,20.2,29.94,NW,318,0.0,2.0,88,0.00,,---,0.04,0.00,VWS V14.00,2013-02-23 00:30:00,
2013-02-22 18:35:00,23.2,20.2,29.94,NW,317,0.0,3.0,88,0.00,,---,0.04,0.00,VWS V14.00,2013-02-23 00:35:00,
2013-02-22 18:40:00,23.1,20.1,29.94,NW,317,2.0,3.0,88,0.00,,---,0.04,0.00,VWS V14.00,2013-02-23 00:40:00,
2013-02-22 18:45:00,23.1,20.4,29.94,NW,311,0.0,3.0,89,0.00,,---,0.04,0.00,VWS V14.00,2013-02-23 00:45:00,
2013-02-22 18:50:00,23.1,20.4,29.94,NW,306,1.0,4.0,89,0.00,,---,0.04,0.00,VWS V14.00,2013-02-23 00:50:00,
2013-02-22 18:55:00,23.1,20.4,29.94,NW,308,0.0,4.0,89,0.00,,---,0.04,0.00,VWS V14.00,2013-02-23 00:55:00,
2013-02-22 19:00:00,23.0,20.2,29.94,NW,308,0.0,1.0,89,0.00,,---,0.04,0.00,VWS V14.00,2013-02-23 01:00:00,
2013-02-22 19:05:00,23.0,20.2,29.94,NW,308,1.0,2.0,89,0.00,,---,0.04,0.00,VWS V14.00,2013-02-23 01:05:00,
2013-02-22 19:10:00,23.0,20.2,29.94,NW,308,0.0,2.0,89,0.00,,---,0.04,0.00,VWS V14.00,2013-02-23 01:10:00,
2013-02-22 19:15:00,23.0,20.2,29.94,NW,308,0.0,2.0,89,0.00,,---,0.04,0.00,VWS V14.00,2013-02-23 01:15:00,
2013-02-22 19:20:00,23.0,20.2,29.94,NNW,329,0.0,3.0,89,0.00,,---,0.04,0.00,VWS V14.00,2013-02-23 01:20:00,
2013-02-22 19:25:00,23.0,20.2,29.93,NNW,327,1.0,3.0,89,0.00,,---,0.04,0.00,VWS V14.00,2013-02-23 01:25:00,
2013-02-22 19:31:00,23.0,20.2,29.93,NNW,329,0.0,3.0,89,0.00,,---,0.04,0.00,VWS V14.00,2013-02-23 01:31:00,
2013-02-22 19:36:00,22.9,20.1,29.93,NW,309,2.0,4.0,89,0.00,,---,0.04,0.00,VWS V14.00,2013-02-23 01:36:00,
2013-02-22 19:41:00,22.9,20.1,29.93,NW,315,0.0,4.0,89,0.00,,---,0.04,0.00,VWS V14.00,2013-02-23 01:41:00,
2013-02-22 19:46:00,22.8,20.0,29.93,NW,325,3.0,5.0,89,0.00,,---,0.04,0.00,VWS V14.00,2013-02-23 01:46:00,
2013-02-22 19:51:00,22.8,20.0,29.92,NW,311,2.0,5.0,89,0.00,,---,0.04,0.00,VWS V14.00,2013-02-23 01:51:00,
2013-02-22 19:56:00,22.8,20.0,29.93,NW,311,1.0,5.0,89,0.00,,---,0.04,0.00,VWS V14.00,2013-02-23 01:56:00,
2013-02-22 20:01:00,22.7,20.0,29.92,NW,311,3.0,3.0,89,0.00,,---,0.04,0.00,VWS V14.00,2013-02-23 02:01:00,
2013-02-22 20:06:00,22.6,19.9,29.92,NW,312,1.0,3.0,89,0.00,,---,0.04,0.00,VWS V14.00,2013-02-23 02:06:00,
2013-02-22 20:11:00,22.6,19.9,29.92,NW,313,0.0,4.0,89,0.00,,---,0.04,0.00,VWS V14.00,2013-02-23 02:11:00,
2013-02-22 20:16:00,22.6,19.9,29.93,NW,313,0.0,4.0,89,0.00,,---,0.04,0.00,VWS V14.00,2013-02-23 02:16:00,
2013-02-22 20:21:00,22.5,19.8,29.92,NW,313,1.0,4.0,89,0.00,,---,0.04,0.00,VWS V14.00,2013-02-23 02:21:00,
2013-02-22 20:27:00,22.4,19.7,29.92,NW,314,1.0,4.0,89,0.00,,---,0.04,0.00,VWS V14.00,2013-02-23 02:27:00,
2013-02-22 20:32:00,22.4,19.7,29.92,NW,310,0.0,4.0,89,0.00,,---,0.04,0.00,VWS V14.00,2013-02-23 02:32:00,
2013-02-22 20:37:00,22.3,19.6,29.92,NW,310,0.0,4.0,89,0.00,,---,0.04,0.00,VWS V14.00,2013-02-23 02:37:00,
2013-02-22 20:42:00,22.1,19.4,29.92,NW,310,1.0,4.0,89,0.00,,---,0.04,0.00,VWS V14.00,2013-02-23 02:42:00,
2013-02-22 20:47:00,22.0,19.3,29.92,NW,310,0.0,4.0,89,0.00,,---,0.04,0.00,VWS V14.00,2013-02-23 02:47:00,
2013-02-22 20:52:00,21.8,19.1,29.92,NW,310,0.0,4.0,89,0.00,,---,0.04,0.00,VWS V14.00,2013-02-23 02:52:00,
2013-02-22 20:57:00,21.7,19.0,29.92,NW,310,2.0,4.0,89,0.00,,---,0.04,0.00,VWS V14.00,2013-02-23 02:57:00,
2013-02-22 21:02:00,21.6,18.9,29.92,NW,310,0.0,2.0,89,0.00,,---,0.04,0.00,VWS V14.00,2013-02-23 03:02:00,
2013-02-22 21:07:00,21.6,18.9,29.92,NW,310,0.0,2.0,89,0.00,,---,0.04,0.00,VWS V14.00,2013-02-23 03:07:00,
2013-02-22 21:12:00,21.6,19.1,29.92,NW,310,0.0,2.0,90,0.00,,---,0.04,0.00,VWS V14.00,2013-02-23 03:12:00,
2013-02-22 21:17:00,21.5,19.0,29.92,NW,310,0.0,2.0,90,0.00,,---,0.04,0.00,VWS V14.00,2013-02-23 03:17:00,
2013-02-22 21:22:00,21.5,19.0,29.92,NW,310,1.0,2.0,90,0.00,,---,0.04,0.00,VWS V14.00,2013-02-23 03:22:00,
2013-02-22 21:27:00,21.5,19.0,29.92,NW,310,0.0,2.0,90,0.00,,---,0.04,0.00,VWS V14.00,2013-02-23 03:27:00,
2013-02-22 21:32:00,21.5,19.0,29.92,NW,309,0.0,2.0,90,0.00,,---,0.04,0.00,VWS V14.00,2013-02-23 03:32:00,
2013-02-22 21:37:00,21.6,19.1,29.92,NW,309,0.0,2.0,90,0.00,,---,0.04,0.00,VWS V14.00,2013-02-23 03:37:00,
2013-02-22 21:42:00,21.5,19.0,29.92,NW,309,0.0,2.0,90,0.00,,---,0.04,0.00,VWS V14.00,2013-02-23 03:42:00,
2013-02-22 21:47:00,21.5,19.0,29.92,NW,309,0.0,2.0,90,0.00,,---,0.04,0.00,VWS V14.00,2013-02-23 03:47:00,
2013-02-22 21:52:00,21.4,18.9,29.92,NW,309,0.0,2.0,90,0.00,,---,0.04,0.00,VWS V14.00,2013-02-23 03:52:00,
2013-02-22 21:57:00,21.4,18.9,29.92,NW,309,0.0,2.0,90,0.00,,---,0.04,0.00,VWS V14.00,2013-02-23 03:57:00,
2013-02-22 22:02:00,21.4,18.9,29.92,NW,309,0.0,1.0,90,0.00,,---,0.04,0.00,VWS V14.00,2013-02-23 04:02:00,
2013-02-22 22:07:00,21.3,18.8,29.92,NW,309,0.0,1.0,90,0.00,,---,0.04,0.00,VWS V14.00,2013-02-23 04:07:00,
2013-02-22 22:12:00,21.2,18.7,29.92,NW,309,0.0,1.0,90,0.00,,---,0.04,0.00,VWS V14.00,2013-02-23 04:12:00,
2013-02-22 22:17:00,21.1,18.6,29.92,NW,309,0.0,1.0,90,0.00,,---,0.04,0.00,VWS V14.00,2013-02-23 04:17:00,
2013-02-22 22:22:00,21.0,18.5,29.92,NW,309,0.0,1.0,90,0.00,,---,0.04,0.00,VWS V14.00,2013-02-23 04:22:00,
2013-02-22 22:27:00,20.8,18.3,29.92,NW,309,0.0,1.0,90,0.00,,---,0.04,0.00,VWS V14.00,2013-02-23 04:27:00,
2013-02-22 22:33:00,20.7,18.2,29.92,NW,309,0.0,0.0,90,0.00,,---,0.04,0.00,VWS V14.00,2013-02-23 04:33:00,
2013-02-22 22:38:00,20.6,18.4,29.92,NW,309,0.0,0.0,91,0.00,,---,0.04,0.00,VWS V14.00,2013-02-23 04:38:00,
2013-02-22 22:43:00,20.5,18.3,29.92,NW,309,0.0,0.0,91,0.00,,---,0.04,0.00,VWS V14.00,2013-02-23 04:43:00,
2013-02-22 22:48:00,20.5,18.3,29.92,NW,309,0.0,1.0,91,0.00,,---,0.04,0.00,VWS V14.00,2013-02-23 04:48:00,
2013-02-22 22:53:00,20.4,18.2,29.92,NW,309,0.0,1.0,91,0.00,,---,0.04,0.00,VWS V14.00,2013-02-23 04:53:00,
2013-02-22 22:58:00,20.3,18.1,29.92,NW,309,0.0,0.0,91,0.00,,---,0.04,0.00,VWS V14.00,2013-02-23 04:58:00,
2013-02-22 23:00:00,20.2,18.0,29.92,NW,309,0.0,1.0,91,0.00,,---,0.04,0.00,VWS V14.00,2013-02-23 05:00:00,
2013-02-22 23:01:00,20.2,18.0,29.92,NW,309,0.0,1.0,91,0.00,,---,0.04,0.00,VWS V14.00,2013-02-23 05:01:00,
2013-02-22 23:06:00,20.2,18.0,29.92,NW,309,0.0,1.0,91,0.00,,---,0.04,0.00,VWS V14.00,2013-02-23 05:06:00,
2013-02-22 23:11:00,20.2,18.0,29.92,NW,309,0.0,1.0,91,0.00,,---,0.04,0.00,VWS V14.00,2013-02-23 05:11:00,
2013-02-22 23:16:00,20.1,17.9,29.92,NW,309,0.0,1.0,91,0.00,,---,0.04,0.00,VWS V14.00,2013-02-23 05:16:00,
2013-02-22 23:21:00,20.0,17.8,29.92,NW,309,0.0,1.0,91,0.00,,---,0.04,0.00,VWS V14.00,2013-02-23 05:21:00,
2013-02-22 23:26:00,20.0,17.8,29.92,SSE,165,2.0,2.0,91,0.00,,---,0.04,0.00,VWS V14.00,2013-02-23 05:26:00,
2013-02-22 23:31:00,20.0,18.0,29.91,SSE,165,0.0,1.0,92,0.00,,---,0.04,0.00,VWS V14.00,2013-02-23 05:31:00,
2013-02-22 23:36:00,20.0,17.8,29.92,SSE,165,0.0,1.0,91,0.00,,---,0.04,0.00,VWS V14.00,2013-02-23 05:36:00,
2013-02-22 23:41:00,19.9,17.7,29.92,SSE,165,0.0,1.0,91,0.00,,---,0.04,0.00,VWS V14.00,2013-02-23 05:41:00,
2013-02-22 23:46:00,19.8,17.6,29.92,SSE,165,0.0,1.0,91,0.00,,---,0.04,0.00,VWS V14.00,2013-02-23 05:46:00,
2013-02-22 23:51:00,19.7,17.5,29.92,SSE,165,1.0,1.0,91,0.00,,---,0.04,0.00,VWS V14.00,2013-02-23 05:51:00,
2013-02-22 23:56:00,19.7,17.5,29.92,SSE,165,0.0,1.0,91,0.00,,---,0.04,0.00,VWS V14.00,2013-02-23 05:56:00,